HBKEY LSZH-EDDS

Flight info

Callsign HBKEY
Flight time 0h 34m
Altitude 9000
Route ZUE T125 ROMIR N851 VEDOK/N0178F080 N851 HEUSE Y715 ARSUT T125 REUTL REUTL5A
Aircraft DA42/L-SBDGRY/S

Departure

Time 2026-05-05 14:53
Airport Zürich Airport (LSZH)

Arrival

Time 2026-05-05 15:28
Airport Stuttgart Airport (EDDS)
Time Latitude Longitude Altitude Speed Heading
2026-05-05 14:53 47.46195 8.56355 1400 ft 37 kts 315°
2026-05-05 14:53 47.46530 8.55883 1435 ft 85 kts 312°
2026-05-05 14:53 47.47018 8.55416 1793 ft 89 kts 353°
2026-05-05 14:53 47.47553 8.55894 2131 ft 99 kts 59°
2026-05-05 14:54 47.47887 8.56810 2486 ft 104 kts 59°
2026-05-05 14:54 47.48200 8.57769 2838 ft 107 kts 79°
2026-05-05 14:54 47.48184 8.58868 3217 ft 108 kts 86°
2026-05-05 14:54 47.48431 8.59981 3407 ft 126 kts 57°
2026-05-05 14:55 47.48950 8.61091 3668 ft 132 kts 53°
2026-05-05 14:55 47.49489 8.62186 4022 ft 132 kts 52°
2026-05-05 14:55 47.50035 8.63283 4345 ft 133 kts 52°
2026-05-05 14:55 47.50586 8.64383 4677 ft 133 kts 52°
2026-05-05 14:56 47.51137 8.65487 5015 ft 134 kts 52°
2026-05-05 14:56 47.51503 8.66222 5238 ft 134 kts 52°
2026-05-05 14:56 47.52057 8.67336 5573 ft 135 kts 52°
2026-05-05 14:56 47.52795 8.68820 5990 ft 135 kts 53°
2026-05-05 14:57 47.53355 8.69948 6261 ft 137 kts 53°
2026-05-05 14:57 47.54393 8.72022 6759 ft 138 kts 52°
2026-05-05 14:57 47.55161 8.73568 7125 ft 139 kts 52°
2026-05-05 14:57 47.56306 8.75876 7660 ft 139 kts 52°
2026-05-05 14:58 47.57442 8.78170 8181 ft 141 kts 52°
2026-05-05 14:58 47.58603 8.80513 8717 ft 142 kts 52°
2026-05-05 14:58 47.59728 8.82927 9239 ft 143 kts 58°
2026-05-05 14:58 47.63761 8.92638 10145 ft 182 kts 58°
2026-05-05 14:59 47.70108 9.07889 10149 ft 187 kts 58°
2026-05-05 14:59 47.70990 9.09737 10144 ft 187 kts 43°
2026-05-05 14:59 47.72084 9.10759 10138 ft 187 kts 19°
2026-05-05 14:59 47.73351 9.11121 10141 ft 186 kts
2026-05-05 15:00 47.74618 9.11335 10141 ft 186 kts
2026-05-05 15:00 47.75902 9.11547 10141 ft 186 kts
2026-05-05 15:00 47.77187 9.11757 10141 ft 186 kts
2026-05-05 15:00 47.82954 9.12696 10140 ft 185 kts
2026-05-05 15:01 47.89833 9.13835 10145 ft 186 kts
2026-05-05 15:01 47.91118 9.14046 10145 ft 186 kts
2026-05-05 15:01 47.92404 9.14257 10145 ft 186 kts
2026-05-05 15:01 47.93546 9.14446 10145 ft 186 kts
2026-05-05 15:04 47.93595 9.14454 10145 ft 186 kts
2026-05-05 15:04 47.94936 9.14677 10145 ft 186 kts
2026-05-05 15:04 47.96222 9.14889 10145 ft 186 kts
2026-05-05 15:05 47.98780 9.15313 10145 ft 186 kts
2026-05-05 15:05 48.00066 9.15529 10145 ft 186 kts
2026-05-05 15:05 48.01353 9.15743 10145 ft 186 kts
2026-05-05 15:06 48.02642 9.15955 10145 ft 186 kts
2026-05-05 15:06 48.03923 9.16239 10140 ft 187 kts 15°
2026-05-05 15:06 48.05071 9.17143 10138 ft 188 kts 38°
2026-05-05 15:06 48.06049 9.18447 10141 ft 188 kts 41°
2026-05-05 15:07 48.07021 9.19761 10142 ft 189 kts 41°
2026-05-05 15:07 48.07993 9.21080 10142 ft 189 kts 41°
2026-05-05 15:07 48.08954 9.22383 10141 ft 189 kts 41°
2026-05-05 15:07 48.09927 9.23700 10138 ft 189 kts 41°
2026-05-05 15:08 48.10898 9.25017 10140 ft 188 kts 41°
2026-05-05 15:08 48.11870 9.26334 10141 ft 189 kts 41°
2026-05-05 15:08 48.12842 9.27652 10141 ft 189 kts 41°
2026-05-05 15:08 48.13872 9.28848 10133 ft 188 kts 23°
2026-05-05 15:09 48.15130 9.29340 10136 ft 187 kts 12°
2026-05-05 15:09 48.16349 9.30019 10136 ft 187 kts 22°
2026-05-05 15:09 48.17541 9.30746 10134 ft 188 kts 20°
2026-05-05 15:09 48.18768 9.31412 10137 ft 188 kts 18°
2026-05-05 15:10 48.20002 9.32053 10133 ft 188 kts 18°
2026-05-05 15:10 48.21234 9.32693 10137 ft 188 kts 18°
2026-05-05 15:10 48.22469 9.33338 10135 ft 188 kts 18°
2026-05-05 15:10 48.23702 9.33985 10136 ft 188 kts 18°
2026-05-05 15:11 48.24934 9.34631 10134 ft 187 kts 18°
2026-05-05 15:11 48.26163 9.35276 10136 ft 187 kts 18°
2026-05-05 15:11 48.27394 9.35921 10135 ft 188 kts 18°
2026-05-05 15:11 48.28625 9.36569 10136 ft 187 kts 18°
2026-05-05 15:12 48.29841 9.37208 10136 ft 187 kts 18°
2026-05-05 15:12 48.31069 9.37854 10133 ft 187 kts 18°
2026-05-05 15:12 48.32300 9.38500 10136 ft 187 kts 18°
2026-05-05 15:12 48.33529 9.39146 10135 ft 187 kts 18°
2026-05-05 15:13 48.34758 9.39794 10136 ft 187 kts 18°
2026-05-05 15:13 48.35987 9.40441 10134 ft 187 kts 18°
2026-05-05 15:13 48.37214 9.41087 10135 ft 187 kts 18°
2026-05-05 15:13 48.38441 9.41733 10136 ft 187 kts 18°
2026-05-05 15:14 48.39691 9.42394 9943 ft 193 kts 18°
2026-05-05 15:14 48.40947 9.43059 9749 ft 195 kts 18°
2026-05-05 15:14 48.42229 9.43736 9550 ft 196 kts 18°
2026-05-05 15:14 48.43517 9.44415 9349 ft 196 kts 18°
2026-05-05 15:15 48.44804 9.45095 9120 ft 196 kts 18°
2026-05-05 15:15 48.46085 9.45774 8868 ft 195 kts 18°
2026-05-05 15:15 48.47357 9.46447 8618 ft 193 kts 18°
2026-05-05 15:15 48.48624 9.47117 8368 ft 193 kts 18°
2026-05-05 15:16 48.49887 9.47785 8118 ft 192 kts 18°
2026-05-05 15:16 48.51147 9.48452 7869 ft 192 kts 18°
2026-05-05 15:16 48.52387 9.49110 7621 ft 191 kts 18°
2026-05-05 15:16 48.53640 9.49774 7374 ft 191 kts 18°
2026-05-05 15:17 48.54890 9.50438 7174 ft 188 kts 18°
2026-05-05 15:17 48.56085 9.51072 7170 ft 177 kts 18°
2026-05-05 15:17 48.57224 9.51675 7169 ft 171 kts 18°
2026-05-05 15:17 48.58334 9.52262 7161 ft 167 kts 18°
2026-05-05 15:18 48.59422 9.52826 7166 ft 165 kts 17°
2026-05-05 15:18 48.60501 9.53388 7167 ft 164 kts 18°
2026-05-05 15:18 48.61577 9.53950 7130 ft 165 kts 18°
2026-05-05 15:18 48.62698 9.54534 6907 ft 175 kts 18°
2026-05-05 15:19 48.63871 9.55144 6659 ft 181 kts 18°
2026-05-05 15:19 48.65057 9.55760 6407 ft 184 kts 18°
2026-05-05 15:19 48.66273 9.56392 6106 ft 185 kts 18°
2026-05-05 15:19 48.67488 9.57023 5810 ft 185 kts 18°
2026-05-05 15:20 48.68701 9.57652 5507 ft 184 kts 18°
2026-05-05 15:20 48.69907 9.58279 5205 ft 180 kts 18°
2026-05-05 15:20 48.71058 9.58883 4901 ft 171 kts 18°
2026-05-05 15:20 48.72200 9.59095 4594 ft 164 kts 346°
2026-05-05 15:21 48.73125 9.58200 4293 ft 159 kts 306°
2026-05-05 15:21 48.73513 9.56707 4172 ft 145 kts 284°
2026-05-05 15:21 48.73758 9.55282 4169 ft 136 kts 284°
2026-05-05 15:21 48.73986 9.53916 4168 ft 132 kts 283°
2026-05-05 15:22 48.74208 9.52591 4166 ft 131 kts 283°
2026-05-05 15:22 48.74299 9.51207 4167 ft 133 kts 272°
2026-05-05 15:22 48.74152 9.49824 4169 ft 134 kts 257°
2026-05-05 15:22 48.73927 9.48448 4169 ft 135 kts 255°
2026-05-05 15:23 48.73685 9.47069 4169 ft 136 kts 255°
2026-05-05 15:23 48.73423 9.45639 4020 ft 146 kts 255°
2026-05-05 15:23 48.73135 9.44120 3821 ft 154 kts 254°
2026-05-05 15:23 48.72836 9.42536 3613 ft 158 kts 254°
2026-05-05 15:24 48.72532 9.40926 3402 ft 160 kts 254°
2026-05-05 15:24 48.72234 9.39353 3192 ft 147 kts 255°
2026-05-05 15:24 48.71966 9.37937 3007 ft 134 kts 254°
2026-05-05 15:24 48.71715 9.36613 2844 ft 126 kts 255°
2026-05-05 15:25 48.71484 9.35386 2671 ft 121 kts 254°
2026-05-05 15:25 48.71256 9.34184 2516 ft 118 kts 254°
2026-05-05 15:25 48.71032 9.32998 2360 ft 117 kts 254°
2026-05-05 15:25 48.70813 9.31837 2210 ft 108 kts 254°
2026-05-05 15:26 48.70615 9.30790 2069 ft 100 kts 254°
2026-05-05 15:26 48.70426 9.29797 1940 ft 97 kts 254°
2026-05-05 15:26 48.70241 9.28821 1809 ft 94 kts 255°
2026-05-05 15:26 48.70064 9.27886 1691 ft 91 kts 254°
2026-05-05 15:27 48.69884 9.26974 1594 ft 90 kts 252°
2026-05-05 15:27 48.69710 9.26068 1478 ft 90 kts 254°
2026-05-05 15:27 48.69548 9.25171 1410 ft 88 kts 255°
2026-05-05 15:27 48.69381 9.24273 1310 ft 90 kts 254°
2026-05-05 15:28 48.69232 9.23473 1280 ft 64 kts 253°
2026-05-05 15:28 48.69131 9.22929 1280 ft 49 kts 254°
2026-05-05 15:28 48.69029 9.22411 1280 ft 54 kts 254°
2026-05-05 15:28 48.68943 9.21890 1280 ft 47 kts 268°
2026-05-05 15:29 48.68974 9.21554 1280 ft 10 kts 284°
2026-05-05 15:29 48.68975 9.21549 1280 ft 0 kts 285°
2026-05-05 15:30 48.68985 9.21477 1280 ft 17 kts 287°
2026-05-05 15:30 48.69030 9.21217 1280 ft 23 kts 284°
2026-05-05 15:30 48.69093 9.21082 1280 ft 1 kts 345°
2026-05-05 15:31 48.69103 9.21078 1280 ft 4 kts 351°
2026-05-05 15:32 48.69106 9.21078 1280 ft 0 kts